weather.gov     
National Weather Service

Regional Weather Roundup
NWS Homepage
This page is being discontinued on March 12, 2014.
The same data is available at this site. Please update your bookmarks.
Thank you, and we apologize for the inconvenience.
Please send an email to SR-SRH.Webmaster@noaa.gov with any concerns.


Current Version
Previous Version:    01  02  03  04  05  06  07  08  09  10  11  12  13  14  15  16  17  18  19  20  21  22  23  24  25  26  27  28  29  30  
   31  32  33  34  35  36  37  38  39  40  41  42  43  44  45  46  47  48  49  50  51  52  53  54  55  56  57  58  59  60  
[Printable]
850
ASCA44 KEWX 281420
RWRMX

LATIN AMERICA AND CARIBBEAN REGIONAL WEATHER ROUNDUP
NATIONAL WEATHER SERVICE AUSTIN/SAN ANTONIO TX
900 AM CDT MON JUL 28 2014

NOTE: "FAIR" INDICATED FEW OR NO CLOUDS BELOW 12,000 FEET WITH NO
SIGNIFICANT WEATHER AND/OR OBSTRUCTIONS TO VISIBILITY.

BAJA CALIFORNIA

CITY           SKY/WX    TMP DP  RH WIND       PRES   REMARKS
MEXICALI       PTSUNNY   81  68  65 E5        29.93
TIJUANA        MOSUNNY   68  63  83 CALM      30.07R

NORTHWESTERN MEXICO

CITY           SKY/WX    TMP DP  RH WIND       PRES   REMARKS
CULIACAN       PTSUNNY   79  73  83 CALM      29.96
DURANGO        SUNNY     63  55  77 NW2       30.38R
GUAYMAS        MOSUNNY   88  81  79 CALM      29.94  HX 105
HERMOSILLO     PTSUNNY   86  70  58 CALM      30.04  HX  90
CD. JUAREZ     CLOUDY    81  50  34 N12       30.20
OBREGON        PTSUNNY   82  75  78 SE2       29.96

NORTHEASTERN MEXICO

CITY           SKY/WX    TMP DP  RH WIND       PRES   REMARKS
CHIHUAHUA      PTSUNNY   73  54  49 N10       30.29
MATAMOROS      SUNNY     84  81  89 SE9       30.09  HX  98
MONCLOVA       SUNNY     79  59  50 E6        30.06S
MONTERREY      PTSUNNY   79  68  69 E5        30.09R
NUEVO LAREDO   MOSUNNY   82  75  78 SE9       30.07
PIEDRAS NEGRAS PTSUNNY   79  66  65 SE7       30.09R
REYNOSA        PTSUNNY   81  75  83 E9        30.06
SALTILLO       SUNNY     75  57  53 S7        30.30R
TORREON        MOSUNNY   77  54  44 E7        30.19R
CD. VICTORIA   SUNNY     81  70  69 S16       30.08

WESTERN MEXICO

CITY           SKY/WX    TMP DP  RH WIND       PRES   REMARKS
AGUASCALIENTES MOSUNNY   59  54  82 N6        30.41
COLIMA         PTSUNNY   73  68  83 CALM      30.10S
DEL BAJIO      SUNNY     63  57  82 N3        30.41R
GUADALAJARA    SUNNY     64  57  77 CALM      30.30  HAZE
MANZANILLO     PTSUNNY   81  70  69 NW6       29.90F
MAZATLAN       MOSUNNY   72  66  83 E6        29.94R
P. VALLARTA    PTSUNNY   75  70  83 CALM      29.96R
URUAPAN        SUNNY     63  59  88 CALM      30.29S
ZACATECAS      SUNNY     54  46  76 CALM      30.43R

CENTRAL MEXICO

CITY           SKY/WX    TMP DP  RH WIND       PRES   REMARKS
CUERNAVACA     MOSUNNY   70  57  64 CALM      30.26R
MEXICO CITY    PTSUNNY   57  52  82 E7        30.46R
MORELIA        SUNNY     57  55  94 CALM      30.36
POZA RICA      PTSUNNY   82  77  83 N5        30.07S HX  91
PUEBLA         MOSUNNY   57  50  77 N6        30.47R
QUERETARO      SUNNY     57  55  94 SW6       30.42R
S. LUIS POTOSI SUNNY     57  55  94 CALM      30.39R
TAMPICO        MOSUNNY   82  75  78 S7        30.08R
TOLUCA         MOSUNNY   52  46  82 N3        30.51S

SOUTHERN MEXICO

CITY           SKY/WX    TMP DP  RH WIND       PRES   REMARKS
ACAPULCO       PTSUNNY   81  72  74 N5        29.93S
B. DE HUATULCO CLOUDY    81  72  74 CALM      29.96
OAXACA         PTSUNNY   61  54  77 N6        30.33R
P. ESCONDIDO   PTSUNNY   79  72  78 E14       30.04R
VERACRUZ       PTSUNNY   79  72  78 N3        30.05R
ZIHUATANEJO    PTSUNNY   81  75  83 CALM      29.96R

YUCATAN PENINSULA

CITY           SKY/WX    TMP DP  RH WIND       PRES   REMARKS
CAMPECHE       SUNNY     81  75  83 E8        30.05R
CANCUN         MOSUNNY   86  77  74 E6        30.08R HX  97
CHETUMAL       MOSUNNY   82  75  78 CALM      30.04R
CD. DEL CARMEN PTSUNNY   84  77  79 E12       30.05  HX  94
COZUMEL        MOSUNNY   82  77  83 E7        30.07R HX  91
MERIDA         PTSUNNY   82  75  78 E7        30.08R
MINATITLAN     PTSUNNY   86  73  66 N7        30.01  HX  93
TAPACHULA      PTSUNNY   84  84 100 CALM      29.94R HX 104
TUX. GUTIERREZ CLOUDY    72  70  94 NE5       30.09R FOG
VILLAHERMOSA   CLOUDY    82  73  74 E13       30.04R

CENTRAL AMERICA

CITY           SKY/WX    TMP DP  RH WIND       PRES   REMARKS
BELIZE CITY    PTSUNNY   84  77  79 NE12      30.05R THUNDER HX  94
MANAGUA        MOSUNNY   84  73  70 E12       29.86S HX  91

CARIBBEAN

CITY           SKY/WX    TMP DP  RH WIND       PRES   REMARKS
ARUBA          PTSUNNY   86  77  74 E18       30.00  HX  97
CURACAO        PTSUNNY   86  77  74 E14       30.03S HX  97
KINGSTON       MOSUNNY   84  75  74 NW7       30.00R HX  92
NASSAU         MOSUNNY   86  75  70 SW7       30.11R HX  95
SAN JUAN       MOSUNNY   88  75  66 NE10      30.10R HX  97
SANTO DOMINGO  MOSUNNY   84  75  74 E5        30.06S HX  92
ST. CROIX      MOSUNNY   84  73  70 E12       30.10R HX  91
ST. KITTS      MOSUNNY   88  72  58 E15       30.09S HX  94
ST. MAARTEN    MOSUNNY   84  72  65 E9        30.09S
ST. THOMAS     MOSUNNY   88  73  62 E8        30.09S HX  96

$$





U.S. Dept. of Commerce
NOAA National Weather Service
1325 East West Highway
Silver Spring, MD 20910
E-mail: w-nws.webmaster@noaa.gov
Page last modified: May 16, 2007
NATIONAL WEATHER SERVICE: for Safety, for Work, for Fun - FOR LIFE